timestamp,wave_ht_sig,wave_ht_max,wave_period_avg,timestamp_internal,wave_ht_sig_Hm0,wave_period,wave_period_peak,wave_direction_peak_spectral,wave_spread_peak,sea_surface_temp_avg,peak_power_spectral_density
2023-07-16T00:00:00Z,1.1,1.6,7.1,2023-07-15T23:30:00Z,1.1,5.4,7.1,168,35,14.2,0.906824
2023-07-16T00:30:00Z,1.1,1.8,7.2,2023-07-16T00:00:00Z,1.2,5.6,7.1,166,30,14.1,1.394022
2023-07-16T01:00:00Z,1.1,1.9,7.1,2023-07-16T00:30:00Z,1.2,5.5,8.3,145,35,14.1,0.875634
2023-07-16T01:30:00Z,1.1,1.8,7.0,2023-07-16T01:00:00Z,1.2,5.4,7.1,170,37,14.0,1.176087
2023-07-16T02:00:00Z,1.0,1.6,7.6,2023-07-16T01:30:00Z,1.2,5.6,8.3,150,34,14.1,1.007219
2023-07-16T02:30:00Z,1.0,1.7,7.6,2023-07-16T02:00:00Z,1.1,5.5,6.7,159,39,14.0,0.824641
2023-07-16T03:00:00Z,1.0,1.6,7.7,2023-07-16T02:30:00Z,1.1,5.5,7.7,143,36,14.0,0.915938
2023-07-16T03:30:00Z,1.0,1.7,7.5,2023-07-16T03:00:00Z,1.1,5.6,7.7,145,41,14.0,0.742445
2023-07-16T04:00:00Z,1.0,1.7,7.3,2023-07-16T03:30:00Z,1.1,5.6,8.3,150,39,14.0,0.888868
2023-07-16T04:30:00Z,1.0,1.9,7.5,2023-07-16T04:00:00Z,1.1,5.4,11.8,136,23,14.0,0.772744
2023-07-16T05:00:00Z,1.0,1.9,7.9,2023-07-16T04:30:00Z,1.1,5.5,11.8,139,26,13.9,0.997197
2023-07-16T05:30:00Z,1.0,1.5,7.8,2023-07-16T05:00:00Z,1.1,5.5,11.1,133,26,13.9,0.788355
2023-07-16T06:00:00Z,1.1,1.8,8.1,2023-07-16T05:30:00Z,1.1,5.4,11.1,143,15,13.6,1.20586
2023-07-16T06:30:00Z,1.1,1.8,7.9,2023-07-16T06:00:00Z,1.1,5.6,11.8,139,21,13.6,1.579634
2023-07-16T07:00:00Z,1.1,1.8,8.1,2023-07-16T06:30:00Z,1.2,5.4,11.8,145,25,13.8,1.339362
2023-07-16T07:30:00Z,1.1,1.9,8.5,2023-07-16T07:00:00Z,1.2,5.6,11.8,139,26,13.7,1.719774
2023-07-16T08:00:00Z,1.1,2.2,8.2,2023-07-16T07:30:00Z,1.2,5.8,11.1,146,18,13.5,2.121648
2023-07-16T08:30:00Z,1.1,2.0,8.7,2023-07-16T08:00:00Z,1.2,5.5,11.8,138,17,13.5,2.164508
2023-07-16T09:00:00Z,1.1,1.8,8.2,2023-07-16T08:30:00Z,1.2,5.8,11.1,135,19,13.5,2.683691
2023-07-16T09:30:00Z,1.2,2.3,8.8,2023-07-16T09:00:00Z,1.2,5.6,11.1,143,23,13.9,2.368349
2023-07-16T10:00:00Z,1.2,2.1,8.9,2023-07-16T09:30:00Z,1.3,5.7,11.1,139,24,13.9,2.737906
2023-07-16T10:30:00Z,1.1,2.2,8.1,2023-07-16T10:00:00Z,1.3,6.1,11.1,143,26,14.0,3.212962
2023-07-16T11:00:00Z,1.2,1.8,8.7,2023-07-16T10:30:00Z,1.2,5.6,10.5,146,24,13.9,1.603507
2023-07-16T11:30:00Z,1.3,2.2,9.1,2023-07-16T11:00:00Z,1.3,6.2,10.5,147,30,13.9,2.079637
2023-07-16T12:00:00Z,1.2,2.0,9.0,2023-07-16T11:30:00Z,1.3,6.2,10.5,140,17,13.8,2.683691
2023-07-16T12:30:00Z,1.1,1.9,8.6,2023-07-16T12:00:00Z,1.3,6.1,11.1,142,25,13.8,1.579634
2023-07-16T13:00:00Z,1.2,1.9,8.6,2023-07-16T12:30:00Z,1.2,5.8,11.8,133,28,14.0,1.540633
2023-07-16T13:30:00Z,1.2,2.2,8.6,2023-07-16T13:00:00Z,1.3,6.1,10.5,149,20,14.2,2.100537
2023-07-16T14:00:00Z,1.2,2.2,8.7,2023-07-16T13:30:00Z,1.3,6.1,11.1,147,19,14.2,2.591387
2023-07-16T14:30:00Z,1.1,2.0,8.6,2023-07-16T14:00:00Z,1.3,6.1,11.8,135,17,14.3,2.264136
2023-07-16T15:00:00Z,1.1,1.8,8.7,2023-07-16T14:30:00Z,1.2,5.9,11.1,142,27,14.4,1.59551
2023-07-16T15:30:00Z,1.2,2.2,8.8,2023-07-16T15:00:00Z,1.2,6.1,11.1,142,26,15.2,1.817012
2023-07-16T16:00:00Z,1.2,1.9,8.9,2023-07-16T15:30:00Z,1.3,6.3,10.5,143,19,14.7,2.175358
2023-07-16T16:30:00Z,1.3,2.1,9.3,2023-07-16T16:00:00Z,1.3,6.3,11.1,139,24,15.1,2.697143
2023-07-16T17:00:00Z,1.2,1.7,9.4,2023-07-16T16:30:00Z,1.3,6.5,11.1,139,17,15.0,2.309875
2023-07-16T17:30:00Z,1.2,1.9,9.1,2023-07-16T17:00:00Z,1.3,6.7,11.8,136,20,14.9,2.298354
2023-07-16T18:00:00Z,1.2,2.0,9.5,2023-07-16T17:30:00Z,1.2,6.3,11.1,133,21,15.4,1.798932
2023-07-16T18:30:00Z,1.1,1.9,9.3,2023-07-16T18:00:00Z,1.3,6.8,11.1,133,19,15.3,2.540074
2023-07-16T19:00:00Z,1.3,2.5,9.5,2023-07-16T18:30:00Z,1.2,6.6,10.0,138,21,14.9,1.958528
2023-07-16T19:30:00Z,1.2,2.1,9.6,2023-07-16T19:00:00Z,1.3,6.7,11.1,139,23,14.2,3.025853
2023-07-16T20:00:00Z,1.3,2.4,9.7,2023-07-16T19:30:00Z,1.3,6.5,10.0,147,21,14.7,2.321453
2023-07-16T20:30:00Z,1.3,2.5,9.8,2023-07-16T20:00:00Z,1.4,7.1,10.5,145,19,14.9,5.013795
2023-07-16T21:00:00Z,1.4,2.1,9.7,2023-07-16T20:30:00Z,1.4,7.1,10.5,146,23,14.4,4.914515
2023-07-16T21:30:00Z,1.3,2.0,9.8,2023-07-16T21:00:00Z,1.5,7.1,10.5,142,23,14.9,4.745483
2023-07-16T22:00:00Z,1.2,2.4,9.6,2023-07-16T21:30:00Z,1.4,7.0,10.5,140,19,15.0,4.084475
2023-07-16T22:30:00Z,1.4,2.2,9.9,2023-07-16T22:00:00Z,1.2,6.7,11.1,142,30,15.5,1.652341
2023-07-16T23:00:00Z,1.3,2.0,9.9,2023-07-16T22:30:00Z,1.4,7.4,16.7,166,26,15.2,2.835429
2023-07-16T23:30:00Z,1.3,2.4,9.4,2023-07-16T23:00:00Z,1.4,7.1,10.0,142,17,14.8,3.963760
